AC0ID-13 Weather Reports


Display with metric or nautical units.
time (UTC)temp
F
wind
direction
speed
MPH
gust
MPH
rain 1hr
in
rain 24hr
in
rain mn
in
humidity
%
barometer
mb
20220525185017 51 68 1.0 5.0 0.00 1.14 1.06 97
20220525184517 51 45 2.0 9.0 0.00 1.14 1.06 97
20220525184016 51 45 2.0 8.0 0.00 1.14 1.06 97
20220525183517 51 68 1.0 9.0 0.00 1.14 1.06 98
20220525183017 51 45 1.0 4.0 0.00 1.14 1.06 98
20220525182517 51 45 2.0 8.0 0.00 1.14 1.06 97
20220525182017 51 45 2.0 7.0 0.00 1.14 1.06 98
20220525181516 51 68 2.0 8.0 0.00 1.14 1.06 98
20220525181017 51 45 1.0 5.0 0.00 1.14 1.06 98
20220525180517 51 45 1.0 5.0 0.00 1.14 1.06 97
20220525180017 51 68 2.0 7.0 0.00 1.14 1.06 98
20220525175517 51 45 2.0 7.0 0.00 1.14 1.06 98
20220525175018 51 45 3.0 7.0 0.00 1.14 1.06 98
20220525174517 51 45 3.0 8.0 0.00 1.14 1.06 98
20220525174018 51 68 2.0 8.0 0.00 1.14 1.06 98
20220525173517 51 45 3.0 8.0 0.00 1.14 1.06 98
20220525173017 51 45 3.0 8.0 0.00 1.14 1.06 98
20220525172517 50 68 2.0 6.0 0.00 1.14 1.06 98
20220525172017 50 45 3.0 10.0 0.00 1.14 1.06 98
20220525171517 50 45 2.0 9.0 0.00 1.14 1.06 98
20220525171016 50 45 3.0 10.0 0.00 1.14 1.06 98
20220525170517 50 45 2.0 7.0 0.00 1.14 1.06 98
20220525170017 50 68 2.0 9.0 0.00 1.14 1.06 98
20220525165517 50 68 3.0 9.0 0.00 1.14 1.06 98
20220525165016 50 68 2.0 10.0 0.00 1.14 1.06 98
20220525164517 50 45 3.0 10.0 0.00 1.14 1.06 98
20220525164016 50 45 3.0 11.0 0.01 1.14 1.06 98
20220525163516 50 68 2.0 9.0 0.01 1.14 1.06 98
20220525163017 50 45 2.0 8.0 0.01 1.14 1.06 98
20220525162517 50 45 3.0 8.0 0.01 1.14 1.06 98
20220525162017 50 68 1.0 6.0 0.01 1.14 1.06 98
20220525161517 50 68 2.0 10.0 0.01 1.14 1.06 98
20220525161017 49 45 3.0 7.0 0.02 1.14 1.06 98
20220525160517 49 68 1.0 9.0 0.02 1.14 1.06 98
20220525160017 49 45 2.0 5.0 0.02 1.14 1.06 98
20220525155523 49 45 3.0 9.0 0.02 1.14 1.06 98
20220525155017 49 45 2.0 8.0 0.02 1.14 1.06 98
20220525154516 49 68 2.0 8.0 0.03 1.14 1.06 98
20220525154017 49 45 2.0 9.0 0.03 1.13 1.05 98
20220525153516 49 45 2.0 11.0 0.03 1.13 1.05 98
20220525153017 49 45 2.0 9.0 0.03 1.13 1.05 98
20220525152516 49 45 2.0 7.0 0.04 1.13 1.05 98
20220525152016 49 45 2.0 9.0 0.04 1.13 1.05 98
20220525151516 48 45 3.0 9.0 0.05 1.13 1.05 98
20220525151016 48 45 4.0 10.0 0.04 1.12 1.04 98
20220525150517 48 45 2.0 11.0 0.05 1.12 1.04 98
20220525150016 48 45 3.0 10.0 0.06 1.12 1.04 98
20220525145517 48 68 1.0 5.0 0.07 1.12 1.04 98
20220525145017 48 68 3.0 10.0 0.08 1.12 1.04 98
20220525144516 48 45 3.0 8.0 0.07 1.11 1.03 98
20220525144016 48 45 3.0 10.0 0.07 1.10 1.02 98
20220525143516 48 45 3.0 7.0 0.08 1.10 1.02 98
20220525143016 48 45 2.0 8.0 0.08 1.10 1.02 98
20220525142518 48 68 1.0 7.0 0.08 1.09 1.01 98
20220525142019 48 45 2.0 6.0 0.09 1.09 1.01 98
20220525141518 48 45 4.0 8.0 0.08 1.08 1.00 98
20220525141019 48 90 2.0 8.0 0.09 1.08 1.00 98
20220525140518 47 45 4.0 12.0 0.09 1.07 0.99 98
20220525140018 47 68 3.0 8.0 0.09 1.06 0.98 98
20220525135517 47 90 2.0 10.0 0.09 1.05 0.97 98
20220525135018 47 68 3.0 10.0 0.09 1.04 0.96 98
20220525134518 47 68 3.0 9.0 0.09 1.04 0.96 98
20220525134018 47 45 3.0 7.0 0.09 1.03 0.95 98
20220525133518 47 45 3.0 10.0 0.08 1.02 0.94 98
20220525133018 47 68 2.0 8.0 0.09 1.02 0.94 98
20220525132518 47 45 3.0 9.0 0.09 1.01 0.93 98
20220525132018 47 45 2.0 6.0 0.09 1.00 0.92 98
20220525131518 47 45 2.0 8.0 0.09 1.00 0.92 98
20220525131018 47 45 2.0 6.0 0.09 0.99 0.91 97
20220525130517 47 45 2.0 6.0 0.08 0.98 0.90 97
20220525130017 47 45 3.0 8.0 0.07 0.97 0.89 97
20220525125517 47 45 3.0 14.0 0.07 0.96 0.88 97
20220525125017 47 68 2.0 7.0 0.07 0.95 0.87 97
20220525124517 47 45 3.0 9.0 0.07 0.95 0.87 97
20220525124017 47 45 2.0 8.0 0.07 0.94 0.86 97
20220525123517 47 45 3.0 8.0 0.08 0.94 0.86 97
20220525123017 47 90 3.0 7.0 0.07 0.93 0.85 97
20220525122517 47 45 3.0 9.0 0.07 0.92 0.84 97
20220525122017 47 45 3.0 13.0 0.07 0.91 0.83 97
20220525121517 47 45 3.0 15.0 0.07 0.91 0.83 97
20220525121017 47 45 4.0 14.0 0.07 0.90 0.82 97
20220525120517 47 45 4.0 13.0 0.08 0.90 0.82 97
20220525120017 47 45 4.0 13.0 0.09 0.90 0.82 97
20220525115517 47 45 3.0 9.0 0.09 0.89 0.81 97
20220525115017 47 45 3.0 9.0 0.10 0.88 0.80 97
20220525114517 47 45 3.0 11.0 0.13 0.88 0.80 97
20220525114017 47 45 4.0 13.0 0.15 0.87 0.79 97
20220525113517 47 68 3.0 8.0 0.18 0.86 0.78 97
20220525113017 47 45 2.0 7.0 0.21 0.86 0.78 97
20220525112517 47 45 3.0 8.0 0.21 0.85 0.77 97
20220525112017 48 45 5.0 10.0 0.22 0.84 0.76 97
20220525111518 48 45 4.0 13.0 0.23 0.84 0.76 97
20220525111017 48 45 3.0 11.0 0.24 0.83 0.75 97
20220525110517 48 45 3.0 10.0 0.25 0.82 0.74 97
20220525110017 48 45 2.0 9.0 0.28 0.81 0.73 97
20220525105517 48 68 2.0 13.0 0.29 0.80 0.72 97
20220525105017 48 45 4.0 13.0 0.30 0.78 0.70 97
20220525104517 48 45 3.0 8.0 0.28 0.75 0.67 97
20220525104017 48 45 3.0 7.0 0.26 0.72 0.64 97
20220525103517 49 68 2.0 6.0 0.23 0.68 0.60 97
20220525103017 49 68 2.0 9.0 0.21 0.65 0.57 97
20220525102517 49 45 3.0 11.0 0.21 0.64 0.56 97
20220525102017 49 45 3.0 12.0 0.21 0.62 0.54 97
20220525101517 49 68 3.0 12.0 0.21 0.61 0.53 97
20220525101017 49 45 2.0 9.0 0.21 0.59 0.51 97
20220525100517 49 45 4.0 11.0 0.19 0.57 0.49 96
20220525100017 49 45 3.0 11.0 0.16 0.53 0.45 96
20220525095517 49 45 3.0 10.0 0.15 0.51 0.43 96
20220525095017 49 68 3.0 8.0 0.13 0.48 0.40 96
20220525094517 49 45 3.0 9.0 0.13 0.47 0.39 96
20220525094017 49 45 4.0 9.0 0.13 0.46 0.38 96
20220525093517 49 45 3.0 9.0 0.13 0.45 0.37 96
20220525093017 49 68 2.0 9.0 0.12 0.44 0.36 96
20220525092517 49 45 2.0 9.0 0.12 0.43 0.35 96
20220525092017 48 45 2.0 6.0 0.11 0.41 0.33 96
20220525091517 48 45 3.0 7.0 0.11 0.40 0.32 96
20220525091017 48 45 2.0 7.0 0.10 0.38 0.30 96
20220525090517 48 45 2.0 6.0 0.10 0.38 0.30 96
20220525090017 48 45 2.0 10.0 0.10 0.37 0.29 96
20220525085517 48 45 2.0 10.0 0.10 0.36 0.28 95
20220525085016 48 68 1.0 4.0 0.10 0.35 0.27 95
20220525084517 48 45 2.0 5.0 0.10 0.34 0.26 95
20220525084017 48 45 3.0 9.0 0.10 0.33 0.25 95
20220525083516 48 45 2.0 6.0 0.10 0.32 0.24 95
20220525083016 48 45 3.0 8.0 0.11 0.32 0.24 95
20220525082516 49 45 2.0 6.0 0.11 0.31 0.23 94
20220525082017 49 45 2.0 7.0 0.11 0.30 0.22 94
20220525081516 49 23 1.0 5.0 0.11 0.29 0.21 94
20220525081017 49 45 1.0 5.0 0.10 0.28 0.20 94
20220525080517 49 45 2.0 6.0 0.11 0.28 0.20 94
20220525080017 49 45 1.0 3.0 0.10 0.27 0.19 94
20220525075516 49 45 1.0 5.0 0.10 0.26 0.18 94
20220525075016 49 90 2.0 7.0 0.09 0.25 0.17 93
20220525074516 49 68 1.0 5.0 0.09 0.24 0.16 93
20220525074016 49 113 1.0 5.0 0.08 0.23 0.15 93
20220525073516 49 45 1.0 8.0 0.08 0.22 0.14 93
20220525073017 49 45 1.0 5.0 0.07 0.21 0.13 93
20220525072516 49 68 1.0 7.0 0.07 0.20 0.12 93
20220525072017 50 0.0 3.0 0.06 0.19 0.11 93
20220525071516 50 68 1.0 4.0 0.06 0.18 0.10 92
20220525071016 50 0.0 5.0 0.06 0.18 0.10 92
20220525070516 50 113 1.0 6.0 0.06 0.17 0.09 92
20220525070016 50 158 1.0 5.0 0.07 0.17 0.09 92
20220525065516 50 135 2.0 7.0 0.06 0.16 0.08 92
20220525065016 51 135 2.0 7.0 0.06 0.16 0.08 92
20220525064516 51 0.0 2.0 0.05 0.15 0.07 93
20220525064016 51 68 1.0 5.0 0.06 0.15 0.07 93
20220525063517 51 0.0 5.0 0.05 0.14 0.06 93
20220525063016 51 113 1.0 5.0 0.05 0.14 0.06 93
20220525062516 51 68 1.0 3.0 0.04 0.13 0.05 93
20220525062022 51 68 1.0 5.0 0.05 0.13 0.05 93
20220525061516 51 0.0 6.0 0.04 0.12 0.04 93
20220525061016 51 90 1.0 3.0 0.04 0.12 0.04 92
20220525060516 52 0.0 3.0 0.03 0.11 0.03 92
20220525060016 52 68 1.0 5.0 0.02 0.10 0.02 92
20220525055516 52 68 1.0 5.0 0.03 0.10 0.02 92
20220525055016 52 68 1.0 9.0 0.03 0.10 0.02 92
20220525054516 52 68 1.0 4.0 0.03 0.10 0.02 92
20220525054016 52 0.0 5.0 0.02 0.09 0.01 92
20220525053516 52 68 1.0 5.0 0.02 0.09 0.01 92
20220525053016 52 68 1.0 6.0 0.03 0.09 0.01 92
20220525052517 52 45 1.0 6.0 0.03 0.09 0.01 92
20220525052017 52 68 1.0 5.0 0.02 0.08 0.00 92
20220525051516 52 0.0 3.0 0.02 0.08 0.00 92
20220525051017 53 0.0 3.0 0.02 0.08 0.00 92
20220525050518 53 68 1.0 3.0 0.03 0.08 0.00 92
20220525050419 53 68 1.0 8.0 0.03 0.08 0.01 92
20220525045517 53 0.0 3.0 0.03 0.07 0.07 92
20220525045017 53 0.0 1.0 0.03 0.07 0.07 92
20220525044517 53 0.0 3.0 0.03 0.07 0.07 92
20220525044018 53 0.0 2.0 0.04 0.07 0.07 91
20220525043517 53 0.0 0.0 0.04 0.07 0.07 91
20220525043018 53 0.0 3.0 0.03 0.06 0.06 91
20220525042517 53 0.0 4.0 0.03 0.06 0.06 91
20220525042018 53 0.0 2.0 0.04 0.06 0.06 90
20220525041518 53 0.0 2.0 0.04 0.06 0.06 90
20220525041017 54 0.0 0.0 0.04 0.06 0.06 90
20220525040517 54 0.0 2.0 0.03 0.05 0.05 89
20220525040018 54 0.0 1.0 0.04 0.05 0.05 89
20220525035517 54 0.0 2.0 0.03 0.04 0.04 88
20220525035017 54 0.0 1.0 0.03 0.04 0.04 87
20220525034517 54 0.0 3.0 0.03 0.04 0.04 87
20220525034017 54 0.0 3.0 0.03 0.03 0.03 86
20220525033517 55 0.0 0.0 0.03 0.03 0.03 86
20220525033018 55 203 1.0 4.0 0.03 0.03 0.03 85
20220525032517 55 0.0 3.0 0.03 0.03 0.03 84
20220525032017 55 203 1.0 5.0 0.02 0.02 0.02 84
20220525031517 56 203 2.0 7.0 0.02 0.02 0.02 82
20220525031018 56 180 1.0 6.0 0.02 0.02 0.02 81
20220525030517 56 0.0 3.0 0.02 0.02 0.02 80
20220525030018 57 203 1.0 5.0 0.01 0.01 0.01 79
20220525025518 57 203 1.0 5.0 0.01 0.01 0.01 77
20220525025017 57 225 1.0 4.0 0.01 0.01 0.01 76
20220525024517 58 0.0 3.0 0.01 0.01 0.01 75
20220525024017 58 0.0 1.0 0.00 0.00 0.00 74
20220525023517 58 0.0 0.0 0.00 0.00 0.00 72
20220525023017 59 0.0 2.0 0.00 0.00 0.00 71
20220525022518 59 0.0 0.0 0.00 0.00 0.00 70
20220525022017 59 0.0 4.0 0.00 0.00 0.00 69
20220525021517 59 0.0 1.0 0.00 0.00 0.00 68
20220525021017 59 0.0 3.0 0.00 0.00 0.00 67
20220525020517 59 180 1.0 4.0 0.00 0.00 0.00 65
20220525020017 60 203 1.0 5.0 0.00 0.00 0.00 64
20220525015517 60 203 1.0 6.0 0.00 0.00 0.00 63
20220525015017 60 203 1.0 7.0 0.00 0.00 0.00 61
20220525014517 60 135 2.0 8.0 0.00 0.00 0.00 60
20220525014017 60 203 1.0 3.0 0.00 0.00 0.00 58
20220525013517 60 0.0 3.0 0.00 0.00 0.00 57
20220525013017 60 0.0 3.0 0.00 0.00 0.00 56
20220525012517 60 0.0 2.0 0.00 0.00 0.00 56
20220525012017 60 0.0 1.0 0.00 0.00 0.00 56
20220525011517 60 0.0 0.0 0.00 0.00 0.00 55
20220525011017 61 0.0 1.0 0.00 0.00 0.00 55
20220525010517 61 0.0 2.0 0.00 0.00 0.00 55
20220525010017 61 0.0 3.0 0.00 0.00 0.00 55
20220525005517 61 0.0 3.0 0.00 0.00 0.00 55
20220525005017 61 0.0 1.0 0.00 0.00 0.00 54
20220525004517 61 0.0 2.0 0.00 0.00 0.00 54
20220525004017 61 0.0 2.0 0.00 0.00 0.00 53
20220525003517 61 0.0 2.0 0.00 0.00 0.00 53
20220525003017 61 0.0 3.0 0.00 0.00 0.00 52
20220525002517 61 68 1.0 4.0 0.00 0.00 0.00 52
20220525002017 61 0.0 2.0 0.00 0.00 0.00 52
20220525001517 61 68 1.0 3.0 0.00 0.00 0.00 52
20220525001017 61 68 1.0 4.0 0.00 0.00 0.00 51
20220525000517 61 45 1.0 6.0 0.00 0.00 0.00 50
20220525000017 61 68 1.0 5.0 0.00 0.00 0.00 51
20220524235517 62 0.0 4.0 0.00 0.00 0.00 50
20220524235017 62 68 1.0 5.0 0.00 0.00 0.00 49
20220524234517 62 0.0 8.0 0.00 0.00 0.00 48
20220524234017 62 68 1.0 4.0 0.00 0.00 0.00 48
20220524233517 62 68 1.0 8.0 0.00 0.00 0.00 46
20220524233017 62 90 1.0 6.0 0.00 0.00 0.00 45
20220524232517 62 0.0 2.0 0.00 0.00 0.00 46
20220524232017 62 68 1.0 7.0 0.00 0.00 0.00 45
20220524231517 62 68 1.0 7.0 0.00 0.00 0.00 45
20220524231017 62 45 2.0 8.0 0.00 0.00 0.00 44
20220524230517 63 68 1.0 5.0 0.00 0.00 0.00 43
20220524230017 63 0.0 4.0 0.00 0.00 0.00 42
20220524225517 63 135 1.0 5.0 0.00 0.00 0.00 43
20220524225017 63 135 1.0 7.0 0.00 0.00 0.00 42
20220524224517 63 68 1.0 7.0 0.00 0.00 0.00 42
20220524224017 63 113 2.0 5.0 0.00 0.00 0.00 42
20220524223517 63 135 2.0 9.0 0.00 0.00 0.00 41
20220524223016 63 90 1.0 7.0 0.00 0.00 0.00 43
20220524222517 63 135 2.0 6.0 0.00 0.00 0.00 40
20220524222017 64 135 2.0 8.0 0.00 0.00 0.00 40
20220524221517 64 113 2.0 8.0 0.00 0.00 0.00 39
20220524221017 64 158 1.0 5.0 0.00 0.00 0.00 40
20220524220516 64 158 1.0 6.0 0.00 0.00 0.00 38
20220524220016 64 158 1.0 7.0 0.00 0.00 0.00 37
20220524215516 64 135 2.0 8.0 0.00 0.00 0.00 37
20220524215016 64 135 1.0 7.0 0.00 0.00 0.00 36
20220524214516 64 90 1.0 8.0 0.00 0.00 0.00 35
20220524214016 64 135 2.0 9.0 0.00 0.00 0.00 35
20220524213516 65 135 3.0 8.0 0.00 0.00 0.00 35
20220524213016 65 135 2.0 10.0 0.00 0.00 0.00 35
20220524212516 65 68 2.0 11.0 0.00 0.00 0.00 35
20220524212016 65 135 2.0 8.0 0.00 0.00 0.00 34
20220524211517 65 23 1.0 8.0 0.00 0.00 0.00 33
20220524211016 65 135 5.0 15.0 0.00 0.00 0.00 31
20220524210517 66 135 3.0 9.0 0.00 0.00 0.00 32
20220524210016 66 135 3.0 12.0 0.00 0.00 0.00 34
20220524205516 66 113 4.0 14.0 0.00 0.00 0.00 33
20220524205016 66 135 2.0 8.0 0.00 0.00 0.00 35
20220524204517 66 135 3.0 10.0 0.00 0.00 0.00 34
20220524204016 66 68 2.0 7.0 0.00 0.00 0.00 35
20220524203516 66 68 2.0 8.0 0.00 0.00 0.00 36
20220524203017 66 68 3.0 9.0 0.00 0.00 0.00 37
20220524202516 66 135 2.0 6.0 0.00 0.00 0.00 36
20220524202016 66 135 4.0 11.0 0.00 0.00 0.00 35
20220524201517 66 68 4.0 10.0 0.00 0.00 0.00 38
20220524201016 66 135 2.0 9.0 0.00 0.00 0.00 37
20220524200516 66 113 3.0 11.0 0.00 0.00 0.00 39
20220524200016 66 135 3.0 9.0 0.00 0.00 0.00 37
20220524195517 67 135 4.0 11.0 0.00 0.00 0.00 37
20220524195016 67 158 4.0 11.0 0.00 0.00 0.00 36
20220524194516 67 45 4.0 10.0 0.00 0.00 0.00 39
20220524194016 67 135 2.0 10.0 0.00 0.00 0.00 42
20220524193516 67 158 1.0 5.0 0.00 0.00 0.00 36
20220524193018 67 135 4.0 12.0 0.00 0.00 0.00 36
20220524192518 67 158 2.0 5.0 0.00 0.00 0.00 36
20220524192018 67 45 3.0 9.0 0.00 0.00 0.00 36
20220524191518 67 68 2.0 8.0 0.00 0.00 0.00 38
20220524191018 66 135 3.0 12.0 0.00 0.00 0.00 39
20220524190518 66 135 1.0 5.0 0.00 0.00 0.00 37
20220524190018 66 135 2.0 7.0 0.00 0.00 0.00 38
20220524185518 66 203 1.0 7.0 0.00 0.00 0.00 38